DELTA 1 DEB (YO), 227

Orbit data source: Space-Track

DELTA 1 DEB (YO), 227 is space debris in LEO originally from a launch on Thu, 08 Feb 1962 UTC launched from the Air Force Eastern Test Range (AFETR). Debris objects in space refer to the collection of defunct objects orbiting the Earth. Examples of debris include non-operational satellites, rocket bodies, and fragments generated from explosions, collisions, or faulty payload assembly.

Loading next visibility...
Identifier
227, 1962-002B
Orbit
LEO
Country
Flag of USUS
Related business
Manufacturer
RCA/East Windsor
Mission
Spacecraft
Bus & Motor
Unknown
Mass
~1 kg wet, ~1 kg dry
Launch date (UTC)
1962-02-08 (64 years ago)
Launch vehicle
Unknown
Launch site
Air Force Eastern Test Range (AFETR)
Object type
Payload
Rocket body
Debris
Shape & HBR
Unknown shape, 0.1 m
Radar Cross Section
Small (<0.1 m²)

Expand to show TLE details & history
Last TLE update: 1 day ago

TLE from 1 day ago
0 DELTA 1 DEB (YO)
1 00227U 62002B   25309.61562665  .00000308  00000-0  13623-3 0  9996
2 00227  48.1475 274.0215 0127973 218.2302 140.9464 14.40545037312063
Epoch: 2025-11-05T14:46Z
TLE epoch observation values (Epoch: 2025-11-05T14:46:30.142Z)
Latitude
-0.00006°
Longitude
7.31011°
Altitude
828.391 km
Speed
7.403 km/s
True Right ascension
18h 16m 05s
True Declination
0° 00' 00"
Sunlit
Object was in daylight at epoch
Visualization orbit readout
Latitude
Unknown
Longitude
Unknown
Altitude
Unknown
Speed
Unknown
Apparent Right ascension
Unknown
Apparent Declination
Unknown
Sunlit
N/A
Visualization observer readout
Local Sidereal Time
15:46:33
Azimuth
Unknown
Elevation
Unknown
Doppler factor
Unknown
Orbital elements
Apogee altitude
849.058 km
Perigee altitude
666.419 km
Semi-major axis
7,135.876 km
Eccentricity
0.0128
Inclination
48.1475°
RAAN
274.0215°
Arg. of periapsis
218.2302°
True anomaly
141.85896°
Mean anomaly
140.9464°
Eccentric anomaly
141.40381°
Mean motion
3.60058 °/min
Orbital period
99.98 mins
BSTAR
0.00013623
Loading maneuver chart data...
Computing Atmospheric mass density...
Loading historical data...
Loading historical data...
Loading historical data...
Loading historical data...
Loading historical data...
Loading historical data...
Loading historical data...
Other satellites on launch #2 in the year 1962 (1962-02-08 UTC)

Documentation

Showing up to 5 results
|